Location: Haliburton Scout Reserve
(45.0900°N, 78.3200°W)
Time: 02:48:38
(UTC-04:00)

NANOSAT C BR1 - Pass Details

Date: 23 May 2022
Orbit: 583 x 601 km, 98.0° (Epoch: 27 June)

Event Time Altitude Azimuth Distance (km) Brightness Sun altitude
Rises 02:41:10 0° 22° (NNE) 2,821 ? -21.1°
Reaches altitude 10° 02:43:31 10° 33° (NNE) 1,914 ? -21.0°
Maximum altitude 02:47:15 32° 97° (E) 1,021 ? -20.7°
Enters shadow 02:48:43 25° 135° (SE) 1,202 ? -20.6°
